This is the latest recevied weather packets stored in our database for station/object KK4KTV-13. If no packets are shown the sender has not sent any weather packets the latest 10 day(s).
| Time | Temp. | Humidity | Pressure | Rain* | Wind** | Luminosity | Snow |
|---|---|---|---|---|---|---|---|
| 1777333813 | 25.56° C | 53% | 1010.6 hPa | 0 mm | - | 23 W/m² | - |
| 1777333510 | 25.56° C | 52% | 1010.3 hPa | 0 mm | - | 26 W/m² | - |
| 1777333206 | 25.56° C | 53% | 1010.7 hPa | 0 mm | - | 24 W/m² | - |
| 1777332905 | 25.56° C | 53% | 1010.8 hPa | 0 mm | - | 27 W/m² | - |
| 1777332603 | 25.56° C | 53% | 1010.7 hPa | 0 mm | - | 28 W/m² | - |
| 1777332299 | 25.56° C | 54% | 1010.6 hPa | 0 mm | - | 34 W/m² | - |
| 1777331995 | 26.11° C | 53% | 1010.8 hPa | 0 mm | - | 50 W/m² | - |
| 1777331694 | 26.11° C | 53% | 1010.9 hPa | 0 mm | - | 54 W/m² | - |
| 1777331390 | 26.11° C | 53% | 1010.7 hPa | 0 mm | - | 64 W/m² | - |
| 1777331088 | 26.11° C | 52% | 1010.6 hPa | 0 mm | - | 74 W/m² | - |
| 1777330784 | 26.11° C | 52% | 1010.6 hPa | 0 mm | - | 82 W/m² | - |
| 1777330481 | 26.67° C | 52% | 1010.6 hPa | 0 mm | - | 99 W/m² | - |
| 1777330179 | 26.67° C | 52% | 1010.3 hPa | 0 mm | - | 113 W/m² | - |
| 1777329877 | 26.11° C | 52% | 1011 hPa | 0 mm | - | 127 W/m² | - |
| 1777329575 | 26.11° C | 52% | 1011 hPa | 0 mm | - | 85 W/m² | - |
| 1777329273 | 26.11° C | 52% | 1011 hPa | 0 mm | - | 94 W/m² | - |
| 1777328970 | 26.67° C | 50% | 1011 hPa | 0 mm | - | 103 W/m² | - |
| 1777328668 | 27.22° C | 49% | 1011 hPa | 0 mm | - | 166 W/m² | - |
| 1777328366 | 27.22° C | 50% | 1010.9 hPa | 0 mm | - | 221 W/m² | - |
| 1777328064 | 26.67° C | 51% | 1010.9 hPa | 0 mm | - | 200 W/m² | - |
| 1777327762 | 27.22° C | 50% | 1011.2 hPa | 0 mm | - | 191 W/m² | - |
| 1777327459 | 27.22° C | 50% | 1011.1 hPa | 0 mm | - | 204 W/m² | - |
| 1777327156 | 27.22° C | 49% | 1011 hPa | 0 mm | - | 231 W/m² | - |
| 1777326854 | 27.22° C | 48% | 1011.1 hPa | 0 mm | - | 273 W/m² | - |
| 1777326550 | 27.22° C | 47% | 1011.1 hPa | 0 mm | - | 243 W/m² | - |
* Rain latest hour (hover to see other rain measurements)
** Current wind speed in m/s (hover to see current wind gust speed)